Time,TemperatureF,DewpointF,PressureIn,WindDirection,WindDirectionDegrees,WindSpeedMPH,WindSpeedGustMPH,Humidity,HourlyPrecipIn,Conditions,Clouds,dailyrainin,SolarRadiationWatts/m^2,SoftwareType,DateUTC
2013-07-18 00:00:00,69.3,67.5,29.94,SE,126,0.0,4.0,94,0.00,,SKC,0.44,0.00,VWS V14.01,2013-07-18 05:00:00,
2013-07-18 00:01:00,69.3,67.5,29.94,SE,126,2.0,4.0,94,0.00,,---,0.44,0.00,VWS V14.00,2013-07-18 05:01:00,
2013-07-18 00:06:00,69.3,67.5,29.94,SE,126,0.0,4.0,94,0.00,,---,0.00,0.00,VWS V14.00,2013-07-18 05:06:00,
2013-07-18 00:10:00,69.3,67.5,29.94,SE,126,2.0,5.0,94,0.00,,SKC,0.00,0.00,VWS V14.01,2013-07-18 05:10:00,
2013-07-18 00:11:00,69.3,67.5,29.94,SE,126,2.0,5.0,94,0.00,,---,0.00,0.00,VWS V14.00,2013-07-18 05:11:00,
2013-07-18 00:16:00,69.2,67.4,29.94,SE,126,4.0,6.0,94,0.00,,---,0.00,0.00,VWS V14.00,2013-07-18 05:16:00,
2013-07-18 00:20:00,69.3,67.5,29.94,SE,126,6.0,6.0,94,0.00,,SKC,0.00,0.00,VWS V14.01,2013-07-18 05:20:00,
2013-07-18 00:21:00,69.3,67.5,29.94,SE,126,4.0,6.0,94,0.00,,---,0.00,0.00,VWS V14.00,2013-07-18 05:21:00,
2013-07-18 00:26:00,69.3,67.5,29.94,SE,126,0.0,6.0,94,0.00,,---,0.00,0.00,VWS V14.00,2013-07-18 05:26:00,
2013-07-18 00:30:00,69.3,67.5,29.94,SE,126,2.0,6.0,94,0.00,,SKC,0.00,0.00,VWS V14.01,2013-07-18 05:30:00,
2013-07-18 00:31:00,69.3,67.5,29.94,SE,126,2.0,6.0,94,0.00,,---,0.00,0.00,VWS V14.00,2013-07-18 05:31:00,
2013-07-18 00:36:00,69.3,67.5,29.94,SE,126,4.0,6.0,94,0.00,,---,0.00,0.00,VWS V14.00,2013-07-18 05:36:00,
2013-07-18 00:40:00,69.3,67.5,29.94,SE,126,1.0,7.0,94,0.00,,SKC,0.00,0.00,VWS V14.01,2013-07-18 05:40:00,
2013-07-18 00:41:00,69.3,67.5,29.94,SE,126,2.0,7.0,94,0.00,,---,0.00,0.00,VWS V14.00,2013-07-18 05:41:00,
2013-07-18 00:46:00,69.3,67.2,29.94,SE,126,5.0,6.0,93,0.00,,---,0.00,0.00,VWS V14.00,2013-07-18 05:46:00,
2013-07-18 00:50:00,69.3,67.2,29.94,SE,126,0.0,6.0,93,0.00,,SKC,0.00,0.00,VWS V14.01,2013-07-18 05:50:00,
2013-07-18 00:51:00,69.2,67.1,29.94,SE,126,0.0,6.0,93,0.00,,---,0.00,0.00,VWS V14.00,2013-07-18 05:51:00,
2013-07-18 00:56:00,69.3,67.2,29.94,SE,126,2.0,2.0,93,0.00,,---,0.00,0.00,VWS V14.00,2013-07-18 05:56:00,
2013-07-18 01:00:00,69.3,67.2,29.94,SE,126,0.0,4.0,93,0.00,,SKC,0.00,0.00,VWS V14.01,2013-07-18 06:00:00,
2013-07-18 01:01:00,69.3,67.2,29.94,SE,126,0.0,4.0,93,0.00,,---,0.00,0.00,VWS V14.00,2013-07-18 06:01:00,
2013-07-18 01:06:00,69.3,67.2,29.94,SE,126,0.0,4.0,93,0.00,,---,0.00,0.00,VWS V14.00,2013-07-18 06:06:00,
2013-07-18 01:10:00,69.2,67.1,29.94,SE,126,0.0,4.0,93,0.00,,SKC,0.00,0.00,VWS V14.01,2013-07-18 06:10:00,
2013-07-18 01:11:00,69.3,67.2,29.94,SE,126,0.0,4.0,93,0.00,,---,0.00,0.00,VWS V14.00,2013-07-18 06:11:00,
2013-07-18 01:16:00,69.2,67.1,29.94,SE,126,0.0,4.0,93,0.00,,---,0.00,0.00,VWS V14.00,2013-07-18 06:16:00,
2013-07-18 01:20:00,69.2,67.4,29.94,SE,126,4.0,5.0,94,0.00,,SKC,0.00,0.00,VWS V14.01,2013-07-18 06:20:00,
2013-07-18 01:21:00,69.2,67.4,29.94,SE,126,2.0,5.0,94,0.00,,---,0.00,0.00,VWS V14.00,2013-07-18 06:21:00,
2013-07-18 01:26:00,69.2,67.4,29.94,SE,126,4.0,4.0,94,0.00,,---,0.00,0.00,VWS V14.00,2013-07-18 06:26:00,
2013-07-18 01:30:00,69.2,67.4,29.94,SE,126,4.0,6.0,94,0.00,,SKC,0.00,0.00,VWS V14.01,2013-07-18 06:30:00,
2013-07-18 01:31:00,69.2,67.4,29.94,SE,126,1.0,6.0,94,0.00,,---,0.00,0.00,VWS V14.00,2013-07-18 06:31:00,
2013-07-18 01:36:00,69.2,67.4,29.94,SE,126,1.0,6.0,94,0.00,,---,0.00,0.00,VWS V14.00,2013-07-18 06:36:00,
2013-07-18 01:40:00,69.2,67.4,29.94,SE,126,2.0,6.0,94,0.00,,SKC,0.00,0.00,VWS V14.01,2013-07-18 06:40:00,
2013-07-18 01:41:00,69.2,67.4,29.94,SE,126,2.0,6.0,94,0.00,,---,0.00,0.00,VWS V14.00,2013-07-18 06:41:00,
2013-07-18 01:46:00,69.2,67.4,29.94,SE,126,4.0,6.0,94,0.00,,---,0.00,0.00,VWS V14.00,2013-07-18 06:46:00,
2013-07-18 01:50:00,69.2,67.4,29.94,SE,126,5.0,6.0,94,0.00,,SKC,0.00,0.00,VWS V14.01,2013-07-18 06:50:00,
2013-07-18 01:51:00,69.2,67.4,29.94,SE,126,4.0,6.0,94,0.00,,---,0.00,0.00,VWS V14.00,2013-07-18 06:51:00,
2013-07-18 01:56:00,69.2,67.4,29.93,SE,126,5.0,5.0,94,0.00,,---,0.00,0.00,VWS V14.00,2013-07-18 06:56:00,
2013-07-18 02:00:00,69.2,67.4,29.93,SE,126,2.0,6.0,94,0.00,,SKC,0.00,0.00,VWS V14.01,2013-07-18 07:00:00,
2013-07-18 02:01:00,69.2,67.4,29.93,SE,126,4.0,6.0,94,0.00,,---,0.00,0.00,VWS V14.00,2013-07-18 07:01:00,
2013-07-18 02:06:00,69.2,67.4,29.93,SE,126,5.0,6.0,94,0.00,,---,0.00,0.00,VWS V14.00,2013-07-18 07:06:00,
2013-07-18 02:10:00,69.3,67.5,29.93,SE,126,1.0,6.0,94,0.00,,SKC,0.00,0.00,VWS V14.01,2013-07-18 07:10:00,
2013-07-18 02:11:00,69.3,67.5,29.93,SE,126,2.0,6.0,94,0.00,,---,0.00,0.00,VWS V14.00,2013-07-18 07:11:00,
2013-07-18 02:16:00,69.3,67.5,29.93,SE,126,2.0,7.0,94,0.00,,---,0.00,0.00,VWS V14.00,2013-07-18 07:16:00,
2013-07-18 02:20:00,69.4,67.6,29.93,SE,126,2.0,7.0,94,0.00,,SKC,0.00,0.00,VWS V14.01,2013-07-18 07:20:00,
2013-07-18 02:21:00,69.3,67.5,29.93,SE,126,4.0,7.0,94,0.00,,---,0.00,0.00,VWS V14.00,2013-07-18 07:21:00,
2013-07-18 02:26:00,69.4,67.6,29.94,SE,126,2.0,7.0,94,0.00,,---,0.00,0.00,VWS V14.00,2013-07-18 07:26:00,
2013-07-18 02:30:00,69.4,67.6,29.94,SE,126,4.0,7.0,94,0.00,,SKC,0.00,0.00,VWS V14.01,2013-07-18 07:30:00,
2013-07-18 02:31:00,69.4,67.6,29.94,SE,126,4.0,7.0,94,0.00,,---,0.00,0.00,VWS V14.00,2013-07-18 07:31:00,
2013-07-18 02:36:00,69.4,67.6,29.94,SE,126,4.0,7.0,94,0.00,,---,0.00,0.00,VWS V14.00,2013-07-18 07:36:00,
2013-07-18 02:40:00,69.4,67.6,29.94,SE,126,8.0,8.0,94,0.00,,SKC,0.00,0.00,VWS V14.01,2013-07-18 07:40:00,
2013-07-18 02:41:00,69.4,67.6,29.94,SE,126,4.0,7.0,94,0.00,,---,0.00,0.00,VWS V14.00,2013-07-18 07:41:00,
2013-07-18 02:46:00,69.4,67.6,29.94,SE,126,4.0,7.0,94,0.00,,---,0.00,0.00,VWS V14.00,2013-07-18 07:46:00,
2013-07-18 02:50:00,69.4,67.6,29.94,SE,126,2.0,8.0,94,0.00,,SKC,0.00,0.00,VWS V14.01,2013-07-18 07:50:00,
2013-07-18 02:51:00,69.4,67.6,29.94,SE,126,1.0,8.0,94,0.00,,---,0.00,0.00,VWS V14.00,2013-07-18 07:51:00,
2013-07-18 02:56:00,69.4,67.6,29.94,SE,126,4.0,8.0,94,0.00,,---,0.00,0.00,VWS V14.00,2013-07-18 07:56:00,
2013-07-18 03:00:00,69.3,67.5,29.94,SE,126,2.0,8.0,94,0.00,,SKC,0.00,0.00,VWS V14.01,2013-07-18 08:00:00,
2013-07-18 03:01:00,69.3,67.5,29.94,SE,126,4.0,8.0,94,0.00,,---,0.00,0.00,VWS V14.00,2013-07-18 08:01:00,
2013-07-18 03:06:00,69.3,67.5,29.94,SE,126,6.0,7.0,94,0.00,,---,0.00,0.00,VWS V14.00,2013-07-18 08:06:00,
2013-07-18 03:10:00,69.2,67.4,29.94,SE,126,2.0,7.0,94,0.00,,SKC,0.00,0.00,VWS V14.01,2013-07-18 08:10:00,
2013-07-18 03:11:00,69.2,67.4,29.94,SE,126,2.0,7.0,94,0.00,,---,0.00,0.00,VWS V14.00,2013-07-18 08:11:00,
2013-07-18 03:16:00,69.2,67.4,29.93,SE,126,2.0,8.0,94,0.00,,---,0.00,0.00,VWS V14.00,2013-07-18 08:16:00,
2013-07-18 03:20:00,69.2,67.4,29.93,SE,126,2.0,8.0,94,0.00,,SKC,0.00,0.00,VWS V14.01,2013-07-18 08:20:00,
2013-07-18 03:21:00,69.2,67.4,29.93,SE,126,4.0,8.0,94,0.00,,---,0.00,0.00,VWS V14.00,2013-07-18 08:21:00,
2013-07-18 03:26:00,69.2,67.4,29.93,SE,126,2.0,6.0,94,0.00,,---,0.00,0.00,VWS V14.00,2013-07-18 08:26:00,
2013-07-18 03:30:00,69.3,67.5,29.93,SE,126,0.0,7.0,94,0.00,,SKC,0.00,0.00,VWS V14.01,2013-07-18 08:30:00,
2013-07-18 03:31:00,69.3,67.5,29.93,SE,126,4.0,7.0,94,0.00,,---,0.00,0.00,VWS V14.00,2013-07-18 08:31:00,
2013-07-18 03:36:00,69.3,67.5,29.93,SE,126,2.0,7.0,94,0.00,,---,0.00,0.00,VWS V14.00,2013-07-18 08:36:00,
2013-07-18 03:40:00,69.3,67.5,29.93,SE,126,4.0,8.0,94,0.00,,SKC,0.00,0.00,VWS V14.01,2013-07-18 08:40:00,
2013-07-18 03:41:00,69.3,67.5,29.93,SE,126,0.0,8.0,94,0.00,,---,0.00,0.00,VWS V14.00,2013-07-18 08:41:00,
2013-07-18 03:46:00,69.3,67.5,29.93,SE,126,0.0,4.0,94,0.00,,---,0.00,0.00,VWS V14.00,2013-07-18 08:46:00,
2013-07-18 03:50:00,69.4,67.6,29.93,SE,126,0.0,5.0,94,0.00,,SKC,0.00,0.00,VWS V14.01,2013-07-18 08:50:00,
2013-07-18 03:51:00,69.3,67.5,29.93,SE,126,0.0,5.0,94,0.00,,---,0.00,0.00,VWS V14.00,2013-07-18 08:51:00,
2013-07-18 03:56:00,69.4,67.6,29.93,SE,126,0.0,4.0,94,0.00,,---,0.00,0.00,VWS V14.00,2013-07-18 08:56:00,
2013-07-18 04:00:00,69.4,67.6,29.92,SE,126,5.0,5.0,94,0.00,,SKC,0.00,0.00,VWS V14.01,2013-07-18 09:00:00,
2013-07-18 04:01:00,69.4,67.6,29.92,SE,126,0.0,4.0,94,0.00,,---,0.00,0.00,VWS V14.00,2013-07-18 09:01:00,
2013-07-18 04:06:00,69.4,67.6,29.93,SE,126,0.0,5.0,94,0.00,,---,0.00,0.00,VWS V14.00,2013-07-18 09:06:00,
2013-07-18 04:10:00,69.4,67.9,29.92,SE,126,1.0,5.0,95,0.00,,SKC,0.00,0.00,VWS V14.01,2013-07-18 09:10:00,
2013-07-18 04:11:00,69.4,67.9,29.92,SE,126,1.0,5.0,95,0.00,,---,0.00,0.00,VWS V14.00,2013-07-18 09:11:00,
2013-07-18 04:16:00,69.4,67.9,29.93,SE,126,0.0,4.0,95,0.00,,---,0.00,0.00,VWS V14.00,2013-07-18 09:16:00,
2013-07-18 04:20:00,69.4,67.9,29.92,SE,126,0.0,4.0,95,0.00,,SKC,0.00,0.00,VWS V14.01,2013-07-18 09:20:00,
2013-07-18 04:21:00,69.4,67.9,29.92,SE,126,0.0,4.0,95,0.00,,---,0.00,0.00,VWS V14.00,2013-07-18 09:21:00,
2013-07-18 04:26:00,69.5,68.0,29.92,SE,126,0.0,5.0,95,0.00,,---,0.00,0.00,VWS V14.00,2013-07-18 09:26:00,
2013-07-18 04:30:00,69.5,68.0,29.92,SE,126,1.0,5.0,95,0.00,,SKC,0.00,0.00,VWS V14.01,2013-07-18 09:30:00,
2013-07-18 04:31:00,69.5,68.0,29.92,SE,126,2.0,5.0,95,0.00,,---,0.00,0.00,VWS V14.00,2013-07-18 09:31:00,
2013-07-18 04:36:00,69.5,68.0,29.92,SE,126,0.0,4.0,95,0.00,,---,0.00,0.00,VWS V14.00,2013-07-18 09:36:00,
2013-07-18 04:40:00,69.5,68.0,29.92,SE,126,0.0,5.0,95,0.00,,SKC,0.00,0.00,VWS V14.01,2013-07-18 09:40:00,
2013-07-18 04:41:00,69.5,68.0,29.92,SE,126,0.0,5.0,95,0.00,,---,0.00,0.00,VWS V14.00,2013-07-18 09:41:00,
2013-07-18 04:46:00,69.6,68.1,29.92,SE,126,0.0,5.0,95,0.00,,---,0.00,0.00,VWS V14.00,2013-07-18 09:46:00,
2013-07-18 04:50:00,69.7,68.2,29.93,SE,126,0.0,5.0,95,0.00,,SKC,0.00,0.00,VWS V14.01,2013-07-18 09:50:00,
2013-07-18 04:51:00,69.7,68.2,29.93,SE,126,0.0,5.0,95,0.00,,---,0.00,0.00,VWS V14.00,2013-07-18 09:51:00,
2013-07-18 04:56:00,69.7,68.2,29.93,SE,126,2.0,6.0,95,0.00,,---,0.00,0.00,VWS V14.00,2013-07-18 09:56:00,
2013-07-18 05:00:00,69.6,68.1,29.93,SE,126,0.0,6.0,95,0.00,,SKC,0.00,0.00,VWS V14.01,2013-07-18 10:00:00,
2013-07-18 05:01:00,69.6,68.1,29.93,SE,126,1.0,6.0,95,0.00,,---,0.00,0.00,VWS V14.00,2013-07-18 10:01:00,
2013-07-18 05:06:00,69.6,68.1,29.92,SE,126,5.0,6.0,95,0.00,,---,0.00,0.00,VWS V14.00,2013-07-18 10:06:00,
2013-07-18 05:10:00,69.5,68.0,29.92,SE,126,4.0,6.0,95,0.00,,SKC,0.00,0.00,VWS V14.01,2013-07-18 10:10:00,
2013-07-18 05:11:00,69.5,68.0,29.92,SE,126,6.0,6.0,95,0.00,,---,0.00,0.00,VWS V14.00,2013-07-18 10:11:00,
2013-07-18 05:16:00,69.5,68.0,29.92,SE,126,2.0,5.0,95,0.00,,---,0.00,0.00,VWS V14.00,2013-07-18 10:16:00,
2013-07-18 05:20:00,69.5,68.0,29.93,SE,126,1.0,5.0,95,0.00,,SKC,0.00,0.00,VWS V14.01,2013-07-18 10:20:00,
2013-07-18 05:21:00,69.5,68.0,29.93,SE,126,2.0,5.0,95,0.00,,---,0.00,0.00,VWS V14.00,2013-07-18 10:21:00,
2013-07-18 05:26:00,69.5,68.0,29.93,SE,126,2.0,5.0,95,0.00,,---,0.00,0.00,VWS V14.00,2013-07-18 10:26:00,
2013-07-18 05:30:00,69.5,68.0,29.93,SE,126,1.0,5.0,95,0.00,,SKC,0.00,0.00,VWS V14.01,2013-07-18 10:30:00,
2013-07-18 05:31:00,69.5,68.0,29.93,SE,126,2.0,5.0,95,0.00,,---,0.00,0.00,VWS V14.00,2013-07-18 10:31:00,
2013-07-18 05:36:00,69.6,68.1,29.93,SE,126,2.0,6.0,95,0.00,,---,0.00,0.00,VWS V14.00,2013-07-18 10:36:00,
2013-07-18 05:40:00,69.6,68.1,29.93,SE,127,4.0,6.0,95,0.00,,SKC,0.00,0.00,VWS V14.01,2013-07-18 10:40:00,
2013-07-18 05:41:00,69.5,68.0,29.93,SE,126,1.0,6.0,95,0.00,,---,0.00,0.00,VWS V14.00,2013-07-18 10:41:00,
2013-07-18 05:46:00,69.5,68.0,29.93,SE,126,0.0,5.0,95,0.00,,---,0.00,0.00,VWS V14.00,2013-07-18 10:46:00,
2013-07-18 05:50:00,69.5,68.0,29.93,SE,126,0.0,5.0,95,0.00,,SKC,0.00,0.00,VWS V14.01,2013-07-18 10:50:00,
2013-07-18 05:51:00,69.5,68.0,29.93,SE,126,0.0,5.0,95,0.00,,---,0.00,0.00,VWS V14.00,2013-07-18 10:51:00,
2013-07-18 05:56:00,69.5,68.0,29.93,SE,126,2.0,4.0,95,0.00,,---,0.00,0.00,VWS V14.00,2013-07-18 10:56:00,
2013-07-18 06:00:00,69.5,68.0,29.93,SE,126,2.0,4.0,95,0.00,,SKC,0.00,0.00,VWS V14.01,2013-07-18 11:00:00,
2013-07-18 06:01:00,69.5,68.0,29.93,SE,126,1.0,4.0,95,0.00,,---,0.00,0.00,VWS V14.00,2013-07-18 11:01:00,
2013-07-18 06:06:00,69.5,68.0,29.93,SE,126,0.0,2.0,95,0.00,,---,0.00,0.00,VWS V14.00,2013-07-18 11:06:00,
2013-07-18 06:10:00,69.5,68.0,29.93,SE,126,0.0,2.0,95,0.00,,SKC,0.00,0.00,VWS V14.01,2013-07-18 11:10:00,
2013-07-18 06:11:00,69.5,68.0,29.93,SE,126,0.0,2.0,95,0.00,,---,0.00,0.00,VWS V14.00,2013-07-18 11:11:00,
2013-07-18 06:16:00,69.5,68.0,29.93,SE,126,0.0,0.0,95,0.00,,---,0.00,0.00,VWS V14.00,2013-07-18 11:16:00,
2013-07-18 06:20:00,69.5,68.0,29.93,SE,126,0.0,0.0,95,0.00,,SKC,0.00,0.00,VWS V14.01,2013-07-18 11:20:00,
2013-07-18 06:21:00,69.5,68.0,29.93,SE,126,0.0,0.0,95,0.00,,---,0.00,0.00,VWS V14.00,2013-07-18 11:21:00,
2013-07-18 06:26:00,69.5,68.0,29.93,SE,126,0.0,0.0,95,0.00,,---,0.00,0.00,VWS V14.00,2013-07-18 11:26:00,
2013-07-18 06:30:00,69.5,68.0,29.93,SE,126,0.0,0.0,95,0.00,,SKC,0.00,0.00,VWS V14.01,2013-07-18 11:30:00,
2013-07-18 06:31:00,69.5,68.0,29.93,SE,126,0.0,0.0,95,0.00,,---,0.00,0.00,VWS V14.00,2013-07-18 11:31:00,
2013-07-18 06:36:00,69.5,68.0,29.93,SE,126,0.0,0.0,95,0.00,,---,0.00,0.00,VWS V14.00,2013-07-18 11:36:00,
2013-07-18 06:40:00,69.5,68.0,29.93,SSE,149,4.0,4.0,95,0.00,,SKC,0.00,0.00,VWS V14.01,2013-07-18 11:40:00,
2013-07-18 06:41:00,69.5,68.0,29.93,SSE,149,0.0,4.0,95,0.00,,---,0.00,0.00,VWS V14.00,2013-07-18 11:41:00,
2013-07-18 06:46:00,69.5,68.0,29.93,SSE,149,2.0,4.0,95,0.00,,---,0.00,0.00,VWS V14.00,2013-07-18 11:46:00,
2013-07-18 06:50:00,69.6,68.1,29.93,SSE,149,4.0,5.0,95,0.00,,SKC,0.00,0.00,VWS V14.01,2013-07-18 11:50:00,
2013-07-18 06:51:00,69.5,68.0,29.93,SSE,149,4.0,5.0,95,0.00,,---,0.00,0.00,VWS V14.00,2013-07-18 11:51:00,
2013-07-18 06:56:00,69.6,68.1,29.93,SSE,149,4.0,4.0,95,0.00,,---,0.00,0.00,VWS V14.00,2013-07-18 11:56:00,
2013-07-18 07:00:00,69.6,68.1,29.93,SSE,149,2.0,5.0,95,0.00,,SKC,0.00,5.00,VWS V14.01,2013-07-18 12:00:00,
2013-07-18 07:01:00,69.6,68.1,29.93,SSE,149,0.0,5.0,95,0.00,,---,0.00,5.00,VWS V14.00,2013-07-18 12:01:00,
2013-07-18 07:06:00,69.6,68.1,29.93,SSE,149,1.0,2.0,95,0.00,,---,0.00,7.00,VWS V14.00,2013-07-18 12:06:00,
2013-07-18 07:10:00,69.7,68.2,29.93,SSE,149,0.0,4.0,95,0.00,,SKC,0.00,12.00,VWS V14.01,2013-07-18 12:10:00,
2013-07-18 07:11:00,69.7,68.2,29.93,SSE,149,0.0,4.0,95,0.00,,---,0.00,11.00,VWS V14.00,2013-07-18 12:11:00,
2013-07-18 07:16:00,69.7,68.2,29.93,SSE,149,0.0,1.0,95,0.00,,---,0.00,16.00,VWS V14.00,2013-07-18 12:16:00,
2013-07-18 07:20:00,69.7,68.2,29.93,SSE,149,0.0,2.0,95,0.00,,SKC,0.00,21.00,VWS V14.01,2013-07-18 12:20:00,
2013-07-18 07:21:00,69.7,68.2,29.93,SSE,149,2.0,2.0,95,0.00,,---,0.00,19.00,VWS V14.00,2013-07-18 12:21:00,
2013-07-18 07:26:00,69.7,68.2,29.93,SSE,149,2.0,2.0,95,0.00,,---,0.00,26.00,VWS V14.00,2013-07-18 12:26:00,
2013-07-18 07:30:00,69.7,68.2,29.93,SSE,149,0.0,2.0,95,0.00,,---,0.00,33.00,VWS V14.00,2013-07-18 12:30:00,
2013-07-18 07:35:00,69.7,68.2,29.93,SSE,149,0.0,4.0,95,0.00,,---,0.00,46.00,VWS V14.00,2013-07-18 12:35:00,
2013-07-18 07:40:00,69.8,68.3,29.94,SSE,149,0.0,4.0,95,0.00,,---,0.00,51.00,VWS V14.00,2013-07-18 12:40:00,
2013-07-18 07:45:00,69.8,68.3,29.93,SSE,149,1.0,5.0,95,0.00,,---,0.00,65.00,VWS V14.00,2013-07-18 12:45:00,
2013-07-18 07:50:00,69.9,68.4,29.94,SSE,149,1.0,5.0,95,0.00,,---,0.00,102.00,VWS V14.00,2013-07-18 12:50:00,
2013-07-18 07:55:00,70.0,68.5,29.93,SSE,149,4.0,5.0,95,0.00,,---,0.00,113.00,VWS V14.00,2013-07-18 12:55:00,
2013-07-18 08:00:00,70.1,68.6,29.93,SSE,149,0.0,5.0,95,0.00,,---,0.00,104.00,VWS V14.00,2013-07-18 13:00:00,
2013-07-18 08:05:00,70.2,68.7,29.93,SSE,149,1.0,5.0,95,0.00,,---,0.00,95.00,VWS V14.00,2013-07-18 13:05:00,
2013-07-18 08:10:00,70.3,68.8,29.94,SSE,149,4.0,5.0,95,0.00,,---,0.00,144.00,VWS V14.00,2013-07-18 13:10:00,
2013-07-18 08:15:00,70.4,68.9,29.94,SSE,149,2.0,5.0,95,0.00,,---,0.00,220.00,VWS V14.00,2013-07-18 13:15:00,
2013-07-18 08:20:00,70.7,69.2,29.93,SSE,149,2.0,5.0,95,0.00,,---,0.00,199.00,VWS V14.00,2013-07-18 13:20:00,
2013-07-18 08:25:00,70.8,69.3,29.94,SSE,149,2.0,4.0,95,0.00,,---,0.00,169.00,VWS V14.00,2013-07-18 13:25:00,
2013-07-18 08:30:00,71.0,69.5,29.94,SSE,149,4.0,4.0,95,0.00,,---,0.00,128.00,VWS V14.00,2013-07-18 13:30:00,
2013-07-18 08:35:00,71.1,69.6,29.94,SSE,149,1.0,5.0,95,0.00,,---,0.00,141.00,VWS V14.00,2013-07-18 13:35:00,
2013-07-18 08:40:00,71.2,69.7,29.94,SSE,149,5.0,6.0,95,0.00,,---,0.00,116.00,VWS V14.00,2013-07-18 13:40:00,
2013-07-18 08:45:00,71.3,69.8,29.94,SSE,149,2.0,5.0,95,0.00,,---,0.00,121.00,VWS V14.00,2013-07-18 13:45:00,
2013-07-18 08:50:00,71.4,69.9,29.94,SSE,149,5.0,5.0,95,0.00,,---,0.00,116.00,VWS V14.00,2013-07-18 13:50:00,
2013-07-18 08:55:00,71.6,70.1,29.94,SSE,149,0.0,5.0,95,0.00,,---,0.00,144.00,VWS V14.00,2013-07-18 13:55:00,
2013-07-18 09:00:00,71.7,70.2,29.95,SSE,149,2.0,6.0,95,0.00,,SKC,0.00,181.00,VWS V14.01,2013-07-18 14:00:00,
2013-07-18 09:01:00,71.7,70.2,29.95,SSE,149,2.0,5.0,95,0.00,,---,0.00,181.00,VWS V14.00,2013-07-18 14:01:00,
2013-07-18 09:06:00,71.8,70.0,29.94,SSE,149,4.0,6.0,94,0.00,,---,0.00,190.00,VWS V14.00,2013-07-18 14:06:00,
2013-07-18 09:10:00,72.0,70.2,29.95,SSE,149,4.0,7.0,94,0.00,,SKC,0.00,278.00,VWS V14.01,2013-07-18 14:10:00,
2013-07-18 09:11:00,71.9,70.1,29.94,SSE,149,4.0,7.0,94,0.00,,---,0.00,237.00,VWS V14.00,2013-07-18 14:11:00,
2013-07-18 09:15:00,72.0,70.2,29.94,SSE,149,2.0,6.0,94,0.00,,---,0.00,265.00,VWS V14.00,2013-07-18 14:15:00,
2013-07-18 09:20:00,72.2,70.4,29.95,SSE,149,5.0,7.0,94,0.00,,---,0.00,237.00,VWS V14.00,2013-07-18 14:20:00,
2013-07-18 09:25:00,72.4,70.6,29.95,SSE,149,4.0,6.0,94,0.00,,---,0.00,199.00,VWS V14.00,2013-07-18 14:25:00,
2013-07-18 09:30:00,72.6,70.5,29.94,SSE,149,1.0,6.0,93,0.00,,---,0.00,213.00,VWS V14.00,2013-07-18 14:30:00,
2013-07-18 09:35:00,72.8,70.7,29.95,SSE,149,2.0,6.0,93,0.00,,---,0.00,241.00,VWS V14.00,2013-07-18 14:35:00,
2013-07-18 09:40:00,73.0,70.9,29.95,SSE,149,4.0,6.0,93,0.00,,---,0.00,250.00,VWS V14.00,2013-07-18 14:40:00,
2013-07-18 09:45:00,73.2,71.1,29.95,SSE,149,1.0,5.0,93,0.00,,---,0.00,274.00,VWS V14.00,2013-07-18 14:45:00,
2013-07-18 09:50:00,73.5,71.0,29.95,SSE,149,0.0,6.0,92,0.00,,---,0.00,243.00,VWS V14.00,2013-07-18 14:50:00,
2013-07-18 09:55:00,73.6,71.1,29.95,SSE,149,6.0,8.0,92,0.00,,---,0.00,309.00,VWS V14.00,2013-07-18 14:55:00,
2013-07-18 10:00:00,73.9,71.1,29.96,SSE,149,1.0,8.0,91,0.00,,SKC,0.00,269.00,VWS V14.01,2013-07-18 15:00:00,
2013-07-18 10:01:00,73.8,71.0,29.95,SSE,149,0.0,8.0,91,0.00,,---,0.00,237.00,VWS V14.00,2013-07-18 15:01:00,
2013-07-18 10:06:00,74.0,71.2,29.95,SSE,149,4.0,6.0,91,0.00,,---,0.00,306.00,VWS V14.00,2013-07-18 15:06:00,
2013-07-18 10:10:00,74.3,71.2,29.96,SSE,149,5.0,7.0,90,0.00,,SKC,0.00,269.00,VWS V14.01,2013-07-18 15:10:00,
2013-07-18 10:11:00,74.2,71.1,29.96,SSE,149,4.0,7.0,90,0.00,,---,0.00,281.00,VWS V14.00,2013-07-18 15:11:00,
2013-07-18 10:16:00,74.4,71.3,29.96,SSE,147,4.0,8.0,90,0.00,,---,0.00,308.00,VWS V14.00,2013-07-18 15:16:00,
2013-07-18 10:20:00,74.5,71.1,29.96,SE,146,4.0,9.0,89,0.00,,SKC,0.00,271.00,VWS V14.01,2013-07-18 15:20:00,
2013-07-18 10:21:00,74.5,71.1,29.96,SE,146,7.0,9.0,89,0.00,,---,0.00,278.00,VWS V14.00,2013-07-18 15:21:00,
2013-07-18 10:25:00,74.6,71.2,29.96,SE,145,2.0,8.0,89,0.00,,---,0.00,251.00,VWS V14.00,2013-07-18 15:25:00,
2013-07-18 10:30:00,74.6,71.5,29.96,SE,144,4.0,9.0,90,0.02,,---,0.02,151.00,VWS V14.00,2013-07-18 15:30:00,
2013-07-18 10:35:00,74.2,71.1,29.96,SE,144,5.0,8.0,90,0.02,,---,0.02,223.00,VWS V14.00,2013-07-18 15:35:00,
2013-07-18 10:40:00,74.0,70.9,29.96,SE,140,6.0,10.0,90,0.02,,---,0.02,350.00,VWS V14.00,2013-07-18 15:40:00,
2013-07-18 10:45:00,74.0,70.9,29.96,SE,140,4.0,7.0,90,0.02,,---,0.02,353.00,VWS V14.00,2013-07-18 15:45:00,
2013-07-18 10:50:00,74.3,71.5,29.96,SE,140,8.0,8.0,91,0.02,,---,0.02,366.00,VWS V14.00,2013-07-18 15:50:00,
2013-07-18 10:55:00,74.7,71.6,29.95,SE,140,2.0,9.0,90,0.02,,---,0.02,427.00,VWS V14.00,2013-07-18 15:55:00,
2013-07-18 11:00:00,75.1,71.6,29.95,SE,140,4.0,9.0,89,0.02,,SKC,0.02,517.00,VWS V14.01,2013-07-18 16:00:00,
2013-07-18 11:01:00,75.1,72.0,29.95,SE,140,2.0,9.0,90,0.02,,---,0.02,485.00,VWS V14.00,2013-07-18 16:01:00,
2013-07-18 11:06:00,75.3,71.5,29.95,SE,138,1.0,9.0,88,0.02,,---,0.02,585.00,VWS V14.00,2013-07-18 16:06:00,
2013-07-18 11:10:00,75.8,72.0,29.95,SE,136,7.0,11.0,88,0.02,,---,0.02,557.00,VWS V14.00,2013-07-18 16:10:00,
2013-07-18 11:15:00,76.2,72.1,29.95,SE,135,6.0,9.0,87,0.02,,---,0.02,522.00,VWS V14.00,2013-07-18 16:15:00,
2013-07-18 11:20:00,76.6,71.8,29.95,SE,131,6.0,12.0,85,0.02,,---,0.02,613.00,VWS V14.00,2013-07-18 16:20:00,
2013-07-18 11:25:00,77.0,72.2,29.95,SE,129,6.0,11.0,85,0.02,,---,0.02,693.00,VWS V14.00,2013-07-18 16:25:00,
2013-07-18 11:30:00,77.4,71.8,29.94,SE,129,7.0,11.0,83,0.02,,---,0.02,675.00,VWS V14.00,2013-07-18 16:30:00,
2013-07-18 11:35:00,77.8,71.9,29.95,SE,126,6.0,12.0,82,0.00,,---,0.02,478.00,VWS V14.00,2013-07-18 16:35:00,
2013-07-18 11:40:00,78.1,72.2,29.94,SE,126,6.0,12.0,82,0.00,,---,0.02,601.00,VWS V14.00,2013-07-18 16:40:00,
2013-07-18 11:45:00,78.5,72.2,29.94,SE,126,11.0,12.0,81,0.00,,---,0.02,821.00,VWS V14.00,2013-07-18 16:45:00,
2013-07-18 11:50:00,79.0,71.6,29.94,SE,126,5.0,12.0,78,0.00,,---,0.02,747.00,VWS V14.00,2013-07-18 16:50:00,
2013-07-18 11:55:00,79.2,71.4,29.94,SE,125,5.0,11.0,77,0.00,,---,0.02,918.00,VWS V14.00,2013-07-18 16:55:00,
2013-07-18 12:00:00,79.4,71.6,29.94,SE,127,4.0,13.0,77,0.00,,---,0.02,698.00,VWS V14.00,2013-07-18 17:00:00,
2013-07-18 12:05:00,79.6,71.4,29.94,ESE,121,11.0,11.0,76,0.00,,---,0.02,712.00,VWS V14.00,2013-07-18 17:05:00,
2013-07-18 12:10:00,79.8,71.2,29.93,ESE,121,8.0,12.0,75,0.00,,---,0.02,1032.00,VWS V14.00,2013-07-18 17:10:00,
2013-07-18 12:15:00,80.4,71.4,29.93,ESE,121,6.0,8.0,74,0.00,,---,0.02,1130.00,VWS V14.00,2013-07-18 17:15:00,
2013-07-18 12:20:00,80.8,70.1,29.93,ESE,120,5.0,9.0,70,0.00,,---,0.02,935.00,VWS V14.00,2013-07-18 17:20:00,
2013-07-18 12:25:00,81.3,70.6,29.93,ESE,120,5.0,9.0,70,0.00,,---,0.02,977.00,VWS V14.00,2013-07-18 17:25:00,
2013-07-18 12:30:00,81.7,71.0,29.93,ESE,119,8.0,12.0,70,0.00,,---,0.02,854.00,VWS V14.00,2013-07-18 17:30:00,
2013-07-18 12:35:00,81.8,70.6,29.93,ESE,120,2.0,11.0,69,0.00,,---,0.02,487.00,VWS V14.00,2013-07-18 17:35:00,
2013-07-18 12:40:00,81.8,70.6,29.93,ESE,120,6.0,11.0,69,0.00,,---,0.02,779.00,VWS V14.00,2013-07-18 17:40:00,
2013-07-18 12:45:00,81.9,71.2,29.93,ESE,120,7.0,8.0,70,0.00,,---,0.02,512.00,VWS V14.00,2013-07-18 17:45:00,
2013-07-18 12:50:00,81.9,70.3,29.93,ESE,119,5.0,9.0,68,0.00,,---,0.02,446.00,VWS V14.00,2013-07-18 17:50:00,
2013-07-18 12:55:00,81.8,70.6,29.92,ESE,120,6.0,9.0,69,0.00,,---,0.02,703.00,VWS V14.00,2013-07-18 17:55:00,
2013-07-18 13:00:00,82.0,70.8,29.92,ESE,118,8.0,11.0,69,0.00,,---,0.02,1364.00,VWS V14.00,2013-07-18 18:00:00,
2013-07-18 13:05:00,82.5,69.6,29.91,ESE,119,8.0,11.0,65,0.00,,---,0.02,388.00,VWS V14.00,2013-07-18 18:05:00,
2013-07-18 13:10:00,82.4,69.9,29.91,ESE,118,5.0,11.0,66,0.00,,---,0.02,436.00,VWS V14.00,2013-07-18 18:10:00,
2013-07-18 13:15:00,82.3,69.4,29.90,ESE,119,7.0,13.0,65,0.00,,---,0.02,497.00,VWS V14.00,2013-07-18 18:15:00,
2013-07-18 13:20:00,82.4,69.9,29.90,SE,124,4.0,15.0,66,0.00,,---,0.02,459.00,VWS V14.00,2013-07-18 18:20:00,
2013-07-18 13:25:00,82.2,69.3,29.90,SE,128,5.0,15.0,65,0.00,,---,0.02,659.00,VWS V14.00,2013-07-18 18:25:00,
2013-07-18 13:30:00,82.3,70.3,29.90,SE,129,5.0,15.0,67,0.00,,---,0.02,373.00,VWS V14.00,2013-07-18 18:30:00,
2013-07-18 13:35:00,82.1,69.6,29.90,SE,129,1.0,11.0,66,0.00,,---,0.02,343.00,VWS V14.00,2013-07-18 18:35:00,
2013-07-18 13:40:00,81.9,69.4,29.90,SE,128,4.0,11.0,66,0.00,,---,0.02,459.00,VWS V14.00,2013-07-18 18:40:00,
2013-07-18 13:45:00,82.3,69.8,29.90,SE,128,9.0,12.0,66,0.00,,---,0.02,865.00,VWS V14.00,2013-07-18 18:45:00,
2013-07-18 13:50:00,82.9,69.0,29.90,SE,126,4.0,13.0,63,0.00,,---,0.02,410.00,VWS V14.00,2013-07-18 18:50:00,
2013-07-18 13:55:00,83.2,69.3,29.89,SE,126,7.0,11.0,63,0.00,,---,0.02,1171.00,VWS V14.00,2013-07-18 18:55:00,
2013-07-18 14:00:00,83.7,69.3,29.88,SE,130,6.0,13.0,62,0.00,,---,0.02,1239.00,VWS V14.00,2013-07-18 19:00:00,
2013-07-18 14:05:00,84.0,69.1,29.88,SE,128,9.0,12.0,61,0.00,,---,0.02,267.00,VWS V14.00,2013-07-18 19:05:00,
2013-07-18 14:10:00,83.9,69.0,29.88,SE,128,4.0,12.0,61,0.00,,---,0.02,1141.00,VWS V14.00,2013-07-18 19:10:00,
2013-07-18 14:15:00,84.3,68.9,29.88,SE,127,6.0,12.0,60,0.00,,---,0.02,1114.00,VWS V14.00,2013-07-18 19:15:00,
2013-07-18 14:20:00,84.3,68.9,29.87,SE,127,4.0,12.0,60,0.00,,---,0.02,1134.00,VWS V14.00,2013-07-18 19:20:00,
2013-07-18 14:25:00,85.1,69.7,29.87,SE,129,6.0,14.0,60,0.00,,---,0.02,1132.00,VWS V14.00,2013-07-18 19:25:00,
2013-07-18 14:30:00,85.2,69.3,29.86,SE,127,6.0,14.0,59,0.00,,---,0.02,1150.00,VWS V14.00,2013-07-18 19:30:00,
2013-07-18 14:35:00,85.2,67.8,29.86,SE,127,4.0,12.0,56,0.00,,---,0.02,1016.00,VWS V14.00,2013-07-18 19:35:00,
2013-07-18 14:40:00,85.4,68.4,29.85,SE,134,6.0,13.0,57,0.00,,---,0.02,1074.00,VWS V14.00,2013-07-18 19:40:00,
2013-07-18 14:45:00,85.6,68.6,29.85,SE,135,7.0,14.0,57,0.00,,---,0.02,211.00,VWS V14.00,2013-07-18 19:45:00,
2013-07-18 14:50:00,85.8,68.8,29.85,SE,135,0.0,14.0,57,0.00,,---,0.02,1097.00,VWS V14.00,2013-07-18 19:50:00,
2013-07-18 14:55:00,86.0,68.0,29.85,SE,134,4.0,11.0,55,0.00,,---,0.02,1097.00,VWS V14.00,2013-07-18 19:55:00,
2013-07-18 15:00:00,86.2,68.2,29.84,SE,134,7.0,12.0,55,0.00,,---,0.02,234.00,VWS V14.00,2013-07-18 20:00:00,
2013-07-18 15:05:00,86.1,68.1,29.85,SE,134,11.0,11.0,55,0.00,,---,0.02,1060.00,VWS V14.00,2013-07-18 20:05:00,
2013-07-18 15:10:00,86.6,68.5,29.84,SE,134,5.0,11.0,55,0.00,,---,0.02,1088.00,VWS V14.00,2013-07-18 20:10:00,
2013-07-18 15:15:00,86.8,68.2,29.84,SE,134,7.0,13.0,54,0.00,,---,0.02,383.00,VWS V14.00,2013-07-18 20:15:00,
2013-07-18 15:20:00,86.8,67.6,29.84,SE,135,5.0,19.0,53,0.00,,---,0.02,227.00,VWS V14.00,2013-07-18 20:20:00,
2013-07-18 15:25:00,86.3,68.2,29.84,SE,135,5.0,9.0,55,0.00,,---,0.02,241.00,VWS V14.00,2013-07-18 20:25:00,
2013-07-18 15:30:00,86.6,68.5,29.84,SE,135,4.0,9.0,55,0.00,,---,0.02,1106.00,VWS V14.00,2013-07-18 20:30:00,
2013-07-18 15:35:00,86.7,68.1,29.84,SE,130,6.0,12.0,54,0.00,,---,0.02,327.00,VWS V14.00,2013-07-18 20:35:00,
2013-07-18 15:40:00,86.3,68.2,29.84,SE,128,8.0,12.0,55,0.00,,---,0.02,221.00,VWS V14.00,2013-07-18 20:40:00,
2013-07-18 15:45:00,86.1,68.1,29.84,SE,128,2.0,12.0,55,0.00,,---,0.02,229.00,VWS V14.00,2013-07-18 20:45:00,
2013-07-18 15:50:00,86.5,68.4,29.83,SE,128,6.0,12.0,55,0.00,,---,0.02,995.00,VWS V14.00,2013-07-18 20:50:00,
2013-07-18 15:55:00,86.6,68.5,29.83,SE,128,6.0,9.0,55,0.00,,---,0.02,220.00,VWS V14.00,2013-07-18 20:55:00,
2013-07-18 16:00:00,86.1,68.1,29.83,SE,128,7.0,9.0,55,0.00,,---,0.02,193.00,VWS V14.00,2013-07-18 21:00:00,
2013-07-18 16:05:00,85.6,68.1,29.82,SE,128,8.0,9.0,56,0.00,,---,0.02,167.00,VWS V14.00,2013-07-18 21:05:00,
2013-07-18 16:10:00,85.1,68.7,29.83,SE,130,9.0,14.0,58,0.00,,---,0.02,139.00,VWS V14.00,2013-07-18 21:10:00,
2013-07-18 16:15:00,84.3,68.9,29.83,SE,129,4.0,14.0,60,0.00,,---,0.02,142.00,VWS V14.00,2013-07-18 21:15:00,
2013-07-18 16:20:00,83.7,68.8,29.82,SE,128,5.0,14.0,61,0.00,,---,0.02,179.00,VWS V14.00,2013-07-18 21:20:00,
2013-07-18 16:25:00,83.4,69.0,29.82,SE,128,7.0,9.0,62,0.00,,---,0.02,234.00,VWS V14.00,2013-07-18 21:25:00,
2013-07-18 16:30:00,83.3,68.5,29.81,SE,128,7.0,9.0,61,0.00,,---,0.02,232.00,VWS V14.00,2013-07-18 21:30:00,
2013-07-18 16:35:00,83.6,68.7,29.81,SE,128,6.0,9.0,61,0.00,,---,0.02,670.00,VWS V14.00,2013-07-18 21:35:00,
2013-07-18 16:40:00,84.6,68.7,29.81,SE,128,7.0,11.0,59,0.00,,---,0.02,807.00,VWS V14.00,2013-07-18 21:40:00,
2013-07-18 16:45:00,85.4,69.0,29.81,SE,128,4.0,9.0,58,0.00,,---,0.02,823.00,VWS V14.00,2013-07-18 21:45:00,
2013-07-18 16:50:00,86.1,68.6,29.80,SE,128,7.0,11.0,56,0.00,,---,0.02,817.00,VWS V14.00,2013-07-18 21:50:00,
2013-07-18 16:55:00,86.6,68.5,29.80,SE,127,7.0,13.0,55,0.00,,---,0.02,833.00,VWS V14.00,2013-07-18 21:55:00,
2013-07-18 17:00:00,86.9,67.7,29.80,SE,130,5.0,14.0,53,0.00,,---,0.02,831.00,VWS V14.00,2013-07-18 22:00:00,
2013-07-18 17:05:00,87.4,67.6,29.79,SE,129,1.0,13.0,52,0.00,,---,0.02,784.00,VWS V14.00,2013-07-18 22:05:00,
2013-07-18 17:10:00,87.8,69.1,29.79,SE,130,0.0,13.0,54,0.00,,---,0.02,826.00,VWS V14.00,2013-07-18 22:10:00,
2013-07-18 17:15:00,88.4,69.7,29.79,SE,129,9.0,13.0,54,0.00,,---,0.02,768.00,VWS V14.00,2013-07-18 22:15:00,
2013-07-18 17:20:00,88.1,68.3,29.78,SE,128,7.0,13.0,52,0.00,,---,0.02,684.00,VWS V14.00,2013-07-18 22:20:00,
2013-07-18 17:25:00,87.8,68.6,29.78,SE,126,6.0,9.0,53,0.00,,---,0.02,594.00,VWS V14.00,2013-07-18 22:25:00,
2013-07-18 17:30:00,87.9,67.5,29.78,SE,127,4.0,9.0,51,0.00,,---,0.02,675.00,VWS V14.00,2013-07-18 22:30:00,
2013-07-18 17:35:00,88.1,66.6,29.78,SE,127,6.0,8.0,49,0.00,,---,0.02,613.00,VWS V14.00,2013-07-18 22:35:00,
2013-07-18 17:40:00,88.2,67.8,29.77,SE,128,4.0,13.0,51,0.00,,---,0.02,522.00,VWS V14.00,2013-07-18 22:40:00,
2013-07-18 17:45:00,88.0,68.2,29.76,SE,127,5.0,9.0,52,0.00,,---,0.02,503.00,VWS V14.00,2013-07-18 22:45:00,
2013-07-18 17:50:00,87.9,66.9,29.77,SE,128,7.0,13.0,50,0.00,,---,0.02,531.00,VWS V14.00,2013-07-18 22:50:00,
2013-07-18 17:55:00,87.9,67.5,29.76,SE,128,5.0,9.0,51,0.00,,---,0.02,329.00,VWS V14.00,2013-07-18 22:55:00,
2013-07-18 18:00:00,87.8,65.7,29.76,SE,128,4.0,9.0,48,0.00,,---,0.02,316.00,VWS V14.00,2013-07-18 23:00:00,
2013-07-18 18:05:00,87.6,64.9,29.76,SE,128,4.0,11.0,47,0.00,,---,0.02,345.00,VWS V14.00,2013-07-18 23:05:00,
2013-07-18 18:10:00,87.5,64.8,29.75,SE,128,5.0,11.0,47,0.00,,---,0.02,283.00,VWS V14.00,2013-07-18 23:10:00,
2013-07-18 18:15:00,87.4,64.7,29.75,SE,128,2.0,11.0,47,0.00,,---,0.02,274.00,VWS V14.00,2013-07-18 23:15:00,
2013-07-18 18:20:00,87.3,64.6,29.76,SE,128,0.0,11.0,47,0.00,,---,0.02,299.00,VWS V14.00,2013-07-18 23:20:00,
2013-07-18 18:25:00,87.3,64.6,29.75,SE,128,5.0,8.0,47,0.00,,---,0.02,246.00,VWS V14.00,2013-07-18 23:25:00,
2013-07-18 18:30:00,87.2,65.1,29.75,SE,128,6.0,11.0,48,0.00,,---,0.02,135.00,VWS V14.00,2013-07-18 23:30:00,
2013-07-18 18:35:00,87.0,65.6,29.74,SE,128,2.0,7.0,49,0.00,,---,0.02,232.00,VWS V14.00,2013-07-18 23:35:00,
2013-07-18 18:40:00,86.8,64.8,29.75,SE,128,4.0,7.0,48,0.00,,---,0.02,195.00,VWS V14.00,2013-07-18 23:40:00,
2013-07-18 18:45:00,86.8,64.2,29.75,SE,128,2.0,11.0,47,0.00,,---,0.02,220.00,VWS V14.00,2013-07-18 23:45:00,
2013-07-18 18:50:00,86.7,64.1,29.75,SE,128,2.0,11.0,47,0.00,,---,0.02,221.00,VWS V14.00,2013-07-18 23:50:00,
2013-07-18 18:55:00,86.8,64.8,29.75,SE,128,5.0,7.0,48,0.00,,---,0.02,302.00,VWS V14.00,2013-07-18 23:55:00,
2013-07-18 19:00:00,86.9,64.9,29.75,SE,128,5.0,11.0,48,0.00,,---,0.02,167.00,VWS V14.00,2013-07-19 00:00:00,
2013-07-18 19:05:00,86.9,66.0,29.74,SE,128,0.0,5.0,50,0.00,,---,0.02,98.00,VWS V14.00,2013-07-19 00:05:00,
2013-07-18 19:10:00,86.7,65.9,29.75,SE,128,4.0,6.0,50,0.00,,---,0.02,88.00,VWS V14.00,2013-07-19 00:10:00,
2013-07-18 19:15:00,86.5,65.7,29.74,SE,128,0.0,8.0,50,0.00,,---,0.02,114.00,VWS V14.00,2013-07-19 00:15:00,
2013-07-18 19:20:00,86.2,66.5,29.75,SE,128,0.0,8.0,52,0.00,,---,0.02,137.00,VWS V14.00,2013-07-19 00:20:00,
2013-07-18 19:25:00,86.1,66.4,29.75,SE,128,5.0,5.0,52,0.00,,---,0.02,93.00,VWS V14.00,2013-07-19 00:25:00,
2013-07-18 19:30:00,85.9,66.2,29.74,SE,128,4.0,5.0,52,0.00,,---,0.02,190.00,VWS V14.00,2013-07-19 00:30:00,
2013-07-18 19:35:00,85.9,66.8,29.74,SE,128,1.0,6.0,53,0.00,,---,0.02,98.00,VWS V14.00,2013-07-19 00:35:00,
2013-07-18 19:40:00,85.8,66.7,29.74,SE,128,1.0,6.0,53,0.00,,---,0.02,135.00,VWS V14.00,2013-07-19 00:40:00,
2013-07-18 19:45:00,85.7,66.1,29.74,SE,128,2.0,6.0,52,0.00,,---,0.02,77.00,VWS V14.00,2013-07-19 00:45:00,
2013-07-18 19:50:00,85.6,66.5,29.73,SE,128,0.0,6.0,53,0.00,,---,0.02,93.00,VWS V14.00,2013-07-19 00:50:00,
2013-07-18 19:55:00,85.5,66.4,29.73,SE,128,1.0,2.0,53,0.00,,---,0.02,81.00,VWS V14.00,2013-07-19 00:55:00,
2013-07-18 20:00:00,85.3,66.2,29.73,SE,128,2.0,4.0,53,0.00,,---,0.02,39.00,VWS V14.00,2013-07-19 01:00:00,
2013-07-18 20:05:00,85.1,66.6,29.74,SE,128,0.0,4.0,54,0.00,,---,0.02,65.00,VWS V14.00,2013-07-19 01:05:00,
2013-07-18 20:10:00,85.0,66.5,29.73,SE,128,0.0,4.0,54,0.00,,---,0.02,32.00,VWS V14.00,2013-07-19 01:10:00,
2013-07-18 20:15:00,84.9,66.4,29.73,SE,128,0.0,1.0,54,0.00,,---,0.02,28.00,VWS V14.00,2013-07-19 01:15:00,
2013-07-18 20:20:00,84.6,66.1,29.74,SE,128,1.0,4.0,54,0.00,,---,0.02,21.00,VWS V14.00,2013-07-19 01:20:00,
2013-07-18 20:25:00,84.3,66.4,29.74,SE,128,0.0,2.0,55,0.00,,---,0.02,14.00,VWS V14.00,2013-07-19 01:25:00,
2013-07-18 20:30:00,84.0,66.6,29.74,SE,128,1.0,2.0,56,0.00,,---,0.02,7.00,VWS V14.00,2013-07-19 01:30:00,
2013-07-18 20:35:00,83.5,66.7,29.75,SE,128,6.0,11.0,57,0.00,,---,0.02,0.00,VWS V14.00,2013-07-19 01:35:00,
2013-07-18 20:40:00,82.8,67.0,29.75,SE,128,7.0,11.0,59,0.00,,---,0.02,0.00,VWS V14.00,2013-07-19 01:40:00,
2013-07-18 20:45:00,82.3,67.5,29.75,SE,128,4.0,7.0,61,0.00,,---,0.02,0.00,VWS V14.00,2013-07-19 01:45:00,
2013-07-18 20:50:00,81.8,67.5,29.76,SE,128,6.0,8.0,62,0.00,,---,0.02,0.00,VWS V14.00,2013-07-19 01:50:00,
2013-07-18 20:55:00,81.4,67.1,29.76,SE,128,1.0,8.0,62,0.00,,---,0.02,0.00,VWS V14.00,2013-07-19 01:55:00,
2013-07-18 21:00:00,81.0,67.2,29.76,SE,128,5.0,12.0,63,0.00,,---,0.02,0.00,VWS V14.00,2013-07-19 02:00:00,
2013-07-18 21:05:00,80.7,66.9,29.77,SE,128,4.0,11.0,63,0.00,,---,0.02,0.00,VWS V14.00,2013-07-19 02:05:00,
2013-07-18 21:10:00,80.4,66.7,29.76,SE,128,7.0,12.0,63,0.00,,---,0.02,0.00,VWS V14.00,2013-07-19 02:10:00,
2013-07-18 21:15:00,80.2,66.9,29.77,SE,128,1.0,9.0,64,0.00,,---,0.02,0.00,VWS V14.00,2013-07-19 02:15:00,
2013-07-18 21:20:00,80.0,66.7,29.77,SE,128,1.0,9.0,64,0.00,,---,0.02,0.00,VWS V14.00,2013-07-19 02:20:00,
2013-07-18 21:25:00,79.8,66.6,29.77,SE,129,12.0,14.0,64,0.00,,---,0.02,0.00,VWS V14.00,2013-07-19 02:25:00,
2013-07-18 21:30:00,79.7,66.9,29.77,SE,129,8.0,14.0,65,0.00,,---,0.02,0.00,VWS V14.00,2013-07-19 02:30:00,
2013-07-18 21:35:00,79.5,66.7,29.77,SE,129,6.0,8.0,65,0.00,,---,0.02,0.00,VWS V14.00,2013-07-19 02:35:00,
2013-07-18 21:40:00,79.4,67.1,29.77,SE,129,7.0,9.0,66,0.00,,---,0.02,0.00,VWS V14.00,2013-07-19 02:40:00,
2013-07-18 21:45:00,79.3,67.0,29.77,SE,129,6.0,6.0,66,0.00,,---,0.02,0.00,VWS V14.00,2013-07-19 02:45:00,
2013-07-18 21:50:00,79.1,66.8,29.78,SE,129,2.0,7.0,66,0.00,,---,0.02,0.00,VWS V14.00,2013-07-19 02:50:00,
2013-07-18 21:55:00,79.1,66.8,29.78,SE,129,5.0,7.0,66,0.00,,---,0.02,0.00,VWS V14.00,2013-07-19 02:55:00,
2013-07-18 22:00:00,78.9,67.0,29.78,SE,129,0.0,7.0,67,0.00,,---,0.02,0.00,VWS V14.00,2013-07-19 03:00:00,
2013-07-18 22:05:00,78.8,66.5,29.78,SE,130,2.0,11.0,66,0.00,,---,0.02,0.00,VWS V14.00,2013-07-19 03:05:00,
2013-07-18 22:10:00,78.7,66.8,29.78,SE,130,0.0,11.0,67,0.00,,---,0.02,0.00,VWS V14.00,2013-07-19 03:10:00,
2013-07-18 22:15:00,78.5,66.6,29.79,SE,130,0.0,5.0,67,0.00,,---,0.02,0.00,VWS V14.00,2013-07-19 03:15:00,
2013-07-18 22:20:00,78.4,67.0,29.78,SE,130,0.0,5.0,68,0.00,,---,0.02,0.00,VWS V14.00,2013-07-19 03:20:00,
2013-07-18 22:25:00,78.2,66.8,29.79,SE,130,0.0,0.0,68,0.00,,---,0.02,0.00,VWS V14.00,2013-07-19 03:25:00,
2013-07-18 22:30:00,78.1,66.7,29.79,SE,130,0.0,1.0,68,0.00,,---,0.02,0.00,VWS V14.00,2013-07-19 03:30:00,
2013-07-18 22:35:00,77.9,66.5,29.79,SE,130,2.0,5.0,68,0.00,,---,0.02,0.00,VWS V14.00,2013-07-19 03:35:00,
2013-07-18 22:40:00,77.7,66.7,29.79,SE,130,1.0,5.0,69,0.00,,---,0.02,0.00,VWS V14.00,2013-07-19 03:40:00,
2013-07-18 22:45:00,77.7,66.7,29.79,SE,130,0.0,2.0,69,0.00,,---,0.02,0.00,VWS V14.00,2013-07-19 03:45:00,
2013-07-18 22:50:00,77.6,67.1,29.79,SE,130,2.0,2.0,70,0.00,,---,0.02,0.00,VWS V14.00,2013-07-19 03:50:00,
2013-07-18 22:55:00,77.5,66.9,29.80,SE,130,0.0,0.0,70,0.00,,---,0.02,0.00,VWS V14.00,2013-07-19 03:55:00,
2013-07-18 23:00:00,77.4,66.9,29.79,SE,130,0.0,5.0,70,0.00,,---,0.02,0.00,VWS V14.00,2013-07-19 04:00:00,
2013-07-18 23:01:00,77.4,66.9,29.79,SE,130,0.0,5.0,70,0.00,,---,0.02,0.00,VWS V14.00,2013-07-19 04:01:00,
2013-07-18 23:06:00,77.3,66.8,29.79,SE,130,1.0,1.0,70,0.00,,---,0.02,0.00,VWS V14.00,2013-07-19 04:06:00,
2013-07-18 23:10:00,77.2,66.7,29.79,SE,130,0.0,1.0,70,0.00,,SKC,0.02,0.00,VWS V14.01,2013-07-19 04:10:00,
2013-07-18 23:11:00,77.2,66.7,29.79,SE,130,0.0,1.0,70,0.00,,---,0.02,0.00,VWS V14.00,2013-07-19 04:11:00,
2013-07-18 23:16:00,77.1,66.6,29.79,SE,130,0.0,0.0,70,0.00,,---,0.02,0.00,VWS V14.00,2013-07-19 04:16:00,
2013-07-18 23:20:00,77.0,66.9,29.79,SE,130,0.0,0.0,71,0.00,,SKC,0.02,0.00,VWS V14.01,2013-07-19 04:20:00,
2013-07-18 23:21:00,77.0,66.9,29.79,SE,130,0.0,0.0,71,0.00,,---,0.02,0.00,VWS V14.00,2013-07-19 04:21:00,
2013-07-18 23:26:00,76.9,66.8,29.80,SE,130,0.0,0.0,71,0.00,,---,0.02,0.00,VWS V14.00,2013-07-19 04:26:00,
2013-07-18 23:30:00,76.8,67.1,29.80,SE,130,1.0,1.0,72,0.00,,SKC,0.02,0.00,VWS V14.01,2013-07-19 04:30:00,
2013-07-18 23:31:00,76.8,67.1,29.80,SE,130,0.0,0.0,72,0.00,,---,0.02,0.00,VWS V14.00,2013-07-19 04:31:00,
2013-07-18 23:36:00,76.8,67.1,29.80,SE,130,0.0,0.0,72,0.00,,---,0.02,0.00,VWS V14.00,2013-07-19 04:36:00,
2013-07-18 23:40:00,76.6,67.3,29.79,SE,130,0.0,4.0,73,0.00,,SKC,0.02,0.00,VWS V14.01,2013-07-19 04:40:00,
2013-07-18 23:41:00,76.7,67.4,29.79,SE,130,0.0,4.0,73,0.00,,---,0.02,0.00,VWS V14.00,2013-07-19 04:41:00,
2013-07-18 23:46:00,76.5,67.2,29.79,SE,130,1.0,4.0,73,0.00,,---,0.02,0.00,VWS V14.00,2013-07-19 04:46:00,
2013-07-18 23:50:00,76.3,67.0,29.79,SE,130,0.0,4.0,73,0.00,,SKC,0.02,0.00,VWS V14.01,2013-07-19 04:50:00,
2013-07-18 23:51:00,76.3,67.0,29.79,SE,130,0.0,4.0,73,0.00,,---,0.02,0.00,VWS V14.00,2013-07-19 04:51:00,
2013-07-18 23:56:00,76.2,67.3,29.79,SE,130,0.0,0.0,74,0.00,,---,0.02,0.00,VWS V14.00,2013-07-19 04:56:00,